Location: Adrasan
(36.3319°N, 30.4314°E)
Time: 01:14:52
(UTC+00:00)

Delta 2 Rocket - Visible Passes

Search period start: 28 May 2024 00:00
Search period end: 07 June 2024 00:00
Orbit: 398 x 678 km, 35.6° (Epoch: 27 May)

Date Brightness Start Highest point End Pass type
(mag) Time Alt. Az. Time Alt. Az. Time Alt. Az.
04 Jun 5.1 02:03:44 10° SSW 02:07:32 26° SSE 02:11:32 10° E visible
05 Jun 4.8 01:53:03 10° SW 01:57:00 30° SSE 02:01:13 10° E visible
06 Jun 4.5 01:43:01 14° SW 01:46:27 36° SSE 01:50:50 10° E visible
